Home > Weather > Antananarivo > Past weeks

Flag for Madagascar Past Weather in Antananarivo, Madagascar — Yesterday and Last 2 Weeks

Now
54 °F

Partly sunny.


Feels Like: 53 °F
Forecast: 48 / 70 °F
Wind: 5 mph from Southeast

Location: Antananarivo / Ivato

Current Time: Jul 2, 2016 at 8:45:16 AM

Latest Report: Jul 2, 2016 at 8:00 AM


Visibility: 5 mi

Pressure: 30.36 "Hg (26.02 "Hg at 1287m altitude)

Humidity: 88%

Dew Point: 50 °F

Location of AntananarivoLocation

Past Weather in Antananarivo — Graph

°F

Antananarivo Temperature Yesterday

Maximum temperature yesterday: 66 °F (at 12:30 PM)
Minimum temperature yesterday: 52 °F (at 12:00 AM)
Average temperature yesterday: 57 °F

High & Low Weather Summary for the Past Weeks

 TemperatureHumidityPressure
High72 °F (Jun 17, 12:00 PM)100% (Jun 17, 7:30 AM)30.42 "Hg (Jun 17, 7:30 AM)
Low41 °F (Jun 29, 5:30 AM)44% (Jun 29, 2:00 PM)30.21 "Hg (Jun 17, 1:30 PM)
Average58 °F79%30.32 "Hg
* Reported Jun 17 7:00 AM — Jul 2 7:30 AM, Antananarivo, Weather by CustomWeather, © 2016

Note: Actual official high and low records may vary slightly from our data, if they occured in-between our weather recording intervals... More about our weather records

Advertising

Antananarivo Weather History for the Previous 24 Hours

Scroll right to see more
 ConditionsComfort  
Time TempWeatherWind HumidityBarometerVisibility
7:30 AM
Sat, Jul 2
54 °FDrizzle. Partly sunny.6 mph82%30.33 "Hg4 mi
7:00 AM52 °FPartly sunny.No wind88%30.33 "HgN/A
6:30 AM52 °FPartly sunny.No wind82%30.30 "HgN/A
6:00 AM52 °FPassing clouds.No wind88%30.30 "HgN/A
5:30 AM52 °FPassing clouds.No wind88%30.30 "HgN/A
5:00 AM50 °FPassing clouds.No wind88%30.30 "HgN/A
4:30 AM50 °FPassing clouds.No wind88%30.27 "HgN/A
4:00 AM50 °FPassing clouds.No wind88%30.30 "HgN/A
3:00 AM50 °FPassing clouds.No wind94%30.30 "HgN/A
2:30 AM50 °FPassing clouds.No wind94%30.30 "HgN/A
2:00 AM50 °FPassing clouds.No wind94%30.30 "HgN/A
1:00 AM50 °FPassing clouds.No wind88%30.33 "HgN/A
12:30 AM50 °FPassing clouds.No wind88%30.33 "HgN/A
12:00 AM52 °FPassing clouds.6 mph82%30.36 "HgN/A
11:30 PM
Fri, Jul 1
52 °FPassing clouds.7 mph82%30.36 "HgN/A
11:00 PM54 °FPassing clouds.8 mph82%30.36 "HgN/A
10:30 PM55 °FPassing clouds.10 mph82%30.36 "HgN/A
10:00 PM55 °FPassing clouds.8 mph82%30.36 "HgN/A
9:30 PM55 °FPassing clouds.8 mph82%30.36 "HgN/A
9:00 PM55 °FPassing clouds.9 mph82%30.36 "HgN/A
8:30 PM55 °FPassing clouds.7 mph77%30.36 "HgN/A
8:00 PM57 °FPassing clouds.7 mph72%30.33 "HgN/A
7:30 PM55 °FPassing clouds.2 mph77%30.33 "HgN/A
7:00 PM55 °FPassing clouds.2 mph77%30.33 "HgN/A
6:30 PM55 °FPassing clouds.7 mph72%30.33 "HgN/A
6:00 PM57 °FPassing clouds.10 mph72%30.30 "HgN/A
5:30 PM57 °FPassing clouds.9 mph67%30.30 "HgN/A
5:00 PM59 °FScattered clouds.15 mph63%30.30 "HgN/A
4:30 PM61 °FScattered clouds.15 mph59%30.27 "HgN/A
4:00 PM63 °FScattered clouds.13 mph59%30.27 "HgN/A
3:30 PM64 °FScattered clouds.12 mph56%30.27 "HgN/A
3:00 PM64 °FPassing clouds.13 mph56%30.27 "HgN/A
2:30 PM64 °FPassing clouds.14 mph56%30.27 "HgN/A
2:00 PM64 °FPassing clouds.12 mph52%30.27 "HgN/A
1:30 PM64 °FPassing clouds.10 mph56%30.27 "HgN/A
1:00 PM66 °FPassing clouds.9 mph52%30.27 "HgN/A
12:30 PM66 °FPassing clouds.14 mph49%30.30 "HgN/A
12:00 PM64 °FPassing clouds.12 mph52%30.30 "HgN/A
11:30 AM64 °FScattered clouds.12 mph56%30.30 "HgN/A
11:00 AM59 °FScattered clouds.10 mph63%30.33 "HgN/A
10:30 AM63 °FPartly sunny.12 mph64%30.33 "HgN/A
10:00 AM57 °FPartly sunny.10 mph72%30.36 "HgN/A
9:30 AM57 °FPartly sunny.13 mph72%30.36 "HgN/A
9:00 AM57 °FPartly sunny.9 mph72%30.36 "HgN/A
8:30 AM57 °FPartly sunny.8 mph67%30.33 "HgN/A
8:00 AM55 °FPartly sunny.10 mph72%30.33 "HgN/A
Weather by CustomWeather, © 2016

See weather overviewHow to use our weather pages